Stations météo

Publicité
Ile Rousse, France (7753): Température de l'air & dewpoint: 19.06.2018 05:00:00 - 25.06.2018 05:00:00 (CEST)Ile Rousse, France (7753): Vitesse du vent & gusts: 19.06.2018 05:00:00 - 25.06.2018 05:00:00 (CEST)Ile Rousse, France (7753): Direction du vent: 19.06.2018 05:00:00 - 25.06.2018 05:00:00 (CEST)Ile Rousse, France (7753): reduced air pressure: 19.06.2018 05:00:00 - 25.06.2018 05:00:00 (CEST)Ile Rousse, France (7753): visibility: 19.06.2018 05:00:00 - 25.06.2018 05:00:00 (CEST)Ile Rousse, France (7753): Quantités de précipitations: 19.06.2018 05:00:00 - 25.06.2018 05:00:00 (CEST)
Date & Time tt [°C] td [°C] ff [km/h] ff [knt] fx [km/h] fx [knt] dd ppp [hPa] vv [km] rr [mm]
25.06.2018 05:00:00 20,8 16,4 4 2 9 5 NNW 1013,9 15 -
25.06.2018 04:00:00 20,8 16,2 5 3 9 5 S 1013,8 - 0,0
25.06.2018 03:00:00 20,6 16,8 5 3 9 5 SE 1014,3 - 0,0
25.06.2018 02:00:00 20,7 16,9 5 3 8 4 SE 1014,5 - -
25.06.2018 01:00:00 20,8 17,8 5 3 8 4 SSE 1014,9 - 0,0
25.06.2018 00:00:00 20,9 18,3 4 2 15 8 W 1015,3 - 0,0
24.06.2018 23:00:00 21,1 18,1 13 7 22 12 SW 1015,4 - -
24.06.2018 22:00:00 21,1 17,7 15 8 16 9 WSW 1015,2 - 0,0
24.06.2018 21:00:00 21,6 17,6 9 5 12 7 W 1014,6 - 0,0
24.06.2018 20:00:00 23,6 18,3 8 4 16 9 NW 1014,7 18 -
24.06.2018 19:00:00 24,7 17,4 11 6 16 9 W 1014,6 - 0,0
24.06.2018 18:00:00 24,0 16,8 8 4 18 10 NNW 1014,9 - 0,0
24.06.2018 17:00:00 23,3 19,0 9 5 18 10 NW 1014,7 18 -
24.06.2018 16:00:00 23,2 19,1 13 7 26 14 N 1014,9 - 0,0
24.06.2018 15:00:00 25,3 19,7 13 7 24 13 W 1015,1 - 0,0
24.06.2018 14:00:00 23,5 19,2 18 10 26 14 W 1015,8 18 -
24.06.2018 13:00:00 24,7 20,0 18 10 29 16 W 1015,9 - 0,0
24.06.2018 12:00:00 23,7 19,8 18 10 28 15 W 1016,1 - 0,0
24.06.2018 11:00:00 23,3 19,0 16 9 26 14 W 1016,1 20 -
24.06.2018 10:00:00 22,7 18,5 13 7 18 10 W 1016,0 - 0,0
24.06.2018 09:00:00 22,6 17,7 8 4 18 10 WNW 1015,8 - 0,0
24.06.2018 08:00:00 21,1 14,5 9 5 16 9 W 1015,6 20 -
24.06.2018 07:00:00 20,5 13,5 9 5 20 11 SW 1015,3 - 0,0
24.06.2018 06:00:00 20,4 12,6 15 8 29 16 ENE 1014,9 - 0,0
24.06.2018 05:00:00 20,9 13,3 17 9 24 13 E 1015,0 18 0,0
24.06.2018 04:00:00 20,2 14,6 16 9 21 11 E 1015,4 - 0,0
24.06.2018 03:00:00 20,5 16,5 4 2 9 5 E 1015,9 - 0,0
24.06.2018 02:00:00 20,9 17,1 4 2 9 5 WSW 1016,1 - -
24.06.2018 01:00:00 21,0 16,0 5 3 16 9 NE 1016,4 - 0,0
24.06.2018 00:00:00 22,2 15,8 4 2 10 5 NE 1016,3 - 0,0
23.06.2018 23:00:00 21,6 17,6 8 4 19 10 SW 1016,2 - 0,0
23.06.2018 22:00:00 21,9 18,3 8 4 22 12 NE 1015,7 - 0,0
23.06.2018 21:00:00 22,5 17,0 13 7 28 15 NE 1015,1 - 0,0
23.06.2018 20:00:00 23,8 16,3 18 10 37 20 NE 1014,9 20 -
23.06.2018 19:00:00 24,2 15,9 24 13 37 20 NE 1014,8 - 0,0
23.06.2018 18:00:00 24,1 15,6 28 15 46 25 NE 1015,0 - 0,0
23.06.2018 17:00:00 24,4 15,3 26 14 44 24 NE 1015,3 - -
23.06.2018 16:00:00 24,8 15,7 29 16 42 23 NE 1015,4 - 0,0
23.06.2018 15:00:00 24,4 15,6 28 15 44 24 NE 1015,6 - 0,0
23.06.2018 14:00:00 23,8 16,1 31 17 50 27 NNE 1016,1 - -
23.06.2018 13:00:00 24,0 15,8 34 18 44 24 NE 1016,3 - 0,0
23.06.2018 12:00:00 23,6 16,6 31 17 42 23 NE 1016,2 - 0,0
23.06.2018 11:00:00 23,2 17,2 33 18 49 27 NE 1015,8 18 0,0
23.06.2018 10:00:00 23,2 17,0 34 18 44 24 NE 1015,4 - 0,0
23.06.2018 09:00:00 23,6 17,8 26 14 41 22 ENE 1015,0 - 0,0
23.06.2018 08:00:00 23,5 18,4 24 13 46 25 ENE 1014,3 - -
23.06.2018 07:00:00 23,4 18,3 31 17 42 23 ENE 1013,9 - 0,0
23.06.2018 06:00:00 22,9 17,1 29 16 41 22 ENE 1013,5 - 0,0
23.06.2018 05:00:00 23,1 17,1 29 16 42 23 E 1013,2 - -
23.06.2018 04:00:00 22,9 17,8 28 15 37 20 ENE 1013,0 - 0,0
23.06.2018 03:00:00 21,8 18,0 22 12 29 16 E 1013,1 - 0,0
23.06.2018 02:00:00 21,5 19,2 18 10 26 14 ENE 1013,3 - -
23.06.2018 01:00:00 21,5 19,6 8 4 15 8 NE 1013,5 - 0,0
23.06.2018 00:00:00 21,3 19,6 4 2 16 9 WSW 1013,1 - 0,0
22.06.2018 23:00:00 21,9 19,5 5 3 5 3 N 1012,6 - -
22.06.2018 22:00:00 22,1 19,5 2 1 9 5 S 1012,0 - 0,0
22.06.2018 21:00:00 22,7 19,3 2 1 13 7 NNE 1011,4 - 0,0
22.06.2018 20:00:00 24,1 19,4 5 3 13 7 N 1011,4 - -
22.06.2018 19:00:00 23,9 19,8 8 4 21 11 N 1011,2 - 0,0
22.06.2018 18:00:00 23,9 19,8 15 8 31 17 N 1011,0 - 0,0
22.06.2018 17:00:00 25,0 19,8 24 13 44 24 NE 1010,8 - -
22.06.2018 16:00:00 26,5 21,0 29 16 41 22 ENE 1010,8 - 0,0
22.06.2018 15:00:00 25,1 19,5 35 19 55 30 NE 1010,9 - 0,0
22.06.2018 14:00:00 25,2 19,6 26 14 39 21 NNE 1011,1 - -
22.06.2018 13:00:00 25,4 20,0 26 14 35 19 NNE 1011,2 - 0,0
22.06.2018 12:00:00 26,0 18,2 21 11 31 17 NE 1010,5 - 0,0
22.06.2018 11:00:00 25,4 18,1 16 9 28 15 ENE 1010,7 25 -
22.06.2018 10:00:00 27,1 13,8 8 4 22 12 ENE 1010,3 - 0,0
22.06.2018 09:00:00 27,0 14,7 9 5 13 7 ENE 1010,5 - 0,0
22.06.2018 08:00:00 25,0 13,2 11 6 21 11 E 1011,1 18 -
22.06.2018 07:00:00 25,7 11,5 11 6 39 21 SW 1011,3 - 0,0
22.06.2018 06:00:00 23,2 13,4 5 3 37 20 E 1011,7 - 0,0
22.06.2018 05:00:00 25,1 11,6 21 11 41 22 SSW 1011,6 - -
22.06.2018 04:00:00 24,1 12,7 16 9 35 19 WSW 1012,5 - 0,0
22.06.2018 03:00:00 24,5 14,0 28 15 41 22 SW 1013,2 - 0,0
22.06.2018 02:00:00 23,9 14,0 15 8 26 14 SW 1013,8 - -
22.06.2018 01:00:00 24,3 14,4 8 4 28 15 WNW 1014,2 - 0,0
22.06.2018 00:00:00 25,1 13,3 13 7 31 17 SW 1014,5 - 0,0
21.06.2018 23:00:00 25,0 12,6 21 11 35 19 SW 1014,5 - -
21.06.2018 22:00:00 24,6 12,9 21 11 42 23 WSW 1014,6 - 0,0
21.06.2018 21:00:00 24,9 13,4 18 10 41 22 SW 1014,3 - 0,0
21.06.2018 20:00:00 25,1 18,8 26 14 44 24 WSW 1014,4 18 -
21.06.2018 19:00:00 25,7 15,7 26 14 46 25 WSW 1014,2 - 0,0
21.06.2018 18:00:00 25,5 20,5 21 11 35 19 WSW 1014,5 - 0,0
21.06.2018 17:00:00 25,2 20,9 21 11 39 21 W 1015,1 18 -
21.06.2018 16:00:00 24,8 20,9 22 12 34 18 W 1015,6 - 0,0
21.06.2018 15:00:00 24,3 20,0 22 12 34 18 W 1015,8 - 0,0
21.06.2018 14:00:00 25,3 20,1 22 12 35 19 W 1015,8 18 -
21.06.2018 13:00:00 25,3 19,4 22 12 31 17 W 1016,6 - 0,0
21.06.2018 12:00:00 24,9 18,8 9 5 18 10 WNW 1016,8 - 0,0
21.06.2018 11:00:00 24,3 17,1 8 4 15 8 WNW 1016,9 18 -
21.06.2018 10:00:00 24,3 17,3 5 3 13 7 NNW 1016,9 - 0,0
21.06.2018 09:00:00 24,4 17,9 4 2 11 6 NNE 1016,8 - 0,0
21.06.2018 08:00:00 23,6 17,8 4 2 8 4 N 1016,9 - -
21.06.2018 07:00:00 23,5 16,0 0 0 8 4 N 1016,8 - 0,0
21.06.2018 06:00:00 21,5 17,1 7 4 13 7 NE 1016,9 - 0,0
21.06.2018 05:00:00 22,0 18,0 9 5 13 7 ENE 1016,9 - -
21.06.2018 04:00:00 22,4 17,3 7 4 14 7 ENE 1017,0 - 0,0
21.06.2018 03:00:00 22,3 17,7 9 5 11 6 E 1017,2 - 0,0
21.06.2018 02:00:00 22,4 17,7 5 3 13 7 SE 1017,4 - -
21.06.2018 01:00:00 22,3 20,2 9 5 18 10 WSW 1017,6 - 0,0
21.06.2018 00:00:00 22,8 18,8 11 6 18 10 WSW 1017,9 - 0,0
20.06.2018 23:00:00 23,3 17,3 11 6 28 15 WSW 1017,9 - -
20.06.2018 22:00:00 23,5 17,9 22 12 34 18 WSW 1017,2 - 0,0
20.06.2018 21:00:00 24,8 17,0 24 13 37 20 WSW 1016,5 - 0,0
20.06.2018 20:00:00 28,5 18,0 8 4 37 20 SW 1016,0 - -
20.06.2018 19:00:00 27,9 17,4 28 15 46 25 NE 1015,5 - 0,0
20.06.2018 18:00:00 28,7 14,9 31 17 42 23 NE 1015,5 - 0,0
20.06.2018 17:00:00 27,4 17,3 31 17 48 26 NE 1015,9 25 -
20.06.2018 16:00:00 25,8 17,7 31 17 52 28 NNE 1016,5 - 0,0
20.06.2018 15:00:00 25,6 16,4 39 21 52 28 NNE 1016,8 - 0,0
20.06.2018 14:00:00 25,5 16,9 34 18 44 24 NNE 1017,2 25 -
20.06.2018 13:00:00 25,8 15,8 34 18 44 24 NNE 1017,7 - 0,0
20.06.2018 12:00:00 26,4 14,2 34 18 42 23 NE 1017,9 - 0,0
20.06.2018 11:00:00 24,8 18,5 26 14 35 19 NNE 1018,0 - -
20.06.2018 10:00:00 26,8 15,2 22 12 35 19 NE 1017,9 - 0,0
20.06.2018 09:00:00 25,6 13,8 26 14 34 18 ENE 1018,0 - 0,0
20.06.2018 08:00:00 25,0 13,5 22 12 28 15 E 1017,9 35 -
20.06.2018 07:00:00 24,1 13,0 22 12 28 15 E 1017,7 - 0,0
20.06.2018 06:00:00 23,4 13,0 13 7 16 9 E 1017,6 - 0,0
20.06.2018 05:00:00 23,9 12,8 11 6 16 9 ENE 1017,6 23 -
20.06.2018 04:00:00 23,8 13,3 11 6 18 10 ENE 1017,7 - 0,0
20.06.2018 03:00:00 23,3 15,6 16 9 26 14 E 1017,9 - 0,0
20.06.2018 02:00:00 23,4 16,2 18 10 26 14 ENE 1018,1 - -
20.06.2018 01:00:00 23,4 16,0 9 5 16 9 ESE 1018,1 - 0,0
20.06.2018 00:00:00 23,3 18,6 11 6 21 11 ENE 1018,2 - 0,0
19.06.2018 23:00:00 25,3 13,8 13 7 22 12 ENE 1017,8 - -
19.06.2018 22:00:00 26,1 11,4 21 11 29 16 E 1017,2 - 0,0
19.06.2018 21:00:00 25,1 15,1 22 12 35 19 ENE 1016,8 - 0,0
19.06.2018 20:00:00 26,6 15,6 29 16 37 20 ENE 1016,3 35 -
19.06.2018 19:00:00 26,6 20,4 21 11 37 20 ENE 1016,3 - 0,0
19.06.2018 18:00:00 27,5 16,1 28 15 46 25 NE 1016,6 - 0,0
19.06.2018 17:00:00 27,1 16,4 31 17 46 25 NE 1016,7 18 -
19.06.2018 16:00:00 27,2 15,6 33 18 49 26 NE 1016,6 - 0,0
19.06.2018 15:00:00 26,7 18,0 35 19 52 28 NE 1016,9 - 0,0
19.06.2018 14:00:00 26,4 17,5 35 19 46 25 NE 1017,1 18 -
19.06.2018 13:00:00 27,1 15,5 31 17 42 23 NE 1017,4 - 0,0
19.06.2018 12:00:00 27,1 14,8 31 17 46 25 NE 1017,7 - 0,0
19.06.2018 11:00:00 28,8 14,2 31 17 44 24 ENE 1017,5 - -
19.06.2018 10:00:00 27,2 15,6 24 13 42 23 ENE 1017,6 - 0,0
19.06.2018 09:00:00 27,2 14,9 24 13 41 22 E 1017,3 - 0,0
19.06.2018 08:00:00 25,9 13,1 26 14 39 21 E 1016,9 - -
19.06.2018 07:00:00 24,1 13,6 22 12 28 15 E 1017,0 - 0,0
19.06.2018 06:00:00 22,6 13,6 18 10 22 12 E 1017,0 - 0,0
19.06.2018 05:00:00 23,0 13,5 22 12 24 13 ENE 1016,7 15 -

tt = Température de l'air
td = dewpoint
ff = Vitesse du vent
fx = gusts
dd = Direction du vent
ppp = reduced air pressure
vv = visibility
rr = Quantités de précipitations

stations d'obs. à proximité